Location: Astronight Observatory
(42.6003°N, 71.2981°W)
Time: 07:24:43
(UTC-05:00)

Daily predictions for brighter satellites

Satellite Brightness Start Highest point End
(mag) Time Altitude Azimuth Time Altitude Azimuth Time Altitude Azimuth
SJ-12 4.3 16:38:28 10° SE 16:42:19 41° ENE 16:46:13 10° N
CSL-04 Rocket 4.2 16:38:01 10° S 16:43:28 69° WSW 16:49:00 10° NNW
SL-8 Rocket 4.0 16:38:11 10° N 16:44:21 68° E 16:50:28 10° SSE
Cosmos 1455 Rocket 3.5 16:40:32 10° N 16:44:44 42° ENE 16:48:56 10° SSE
Tiangong 1 2.8 16:42:41 10° SSW 16:45:06 22° SSE 16:47:30 10° E
IDEFIX/ARIANE 42P 2.7 16:44:08 10° SE 16:49:07 50° ENE 16:54:07 10° N
CZ-3B DEB 2.0 16:51:00 10° SW 16:54:20 75° SE 17:02:50 10° NE
AQUARIUS 4.3 16:50:59 10° SSE 16:55:22 55° ENE 16:59:46 10° N
Cosmos 2366 rocket 4.1 16:50:25 10° N 16:56:45 63° E 17:02:57 10° SSE
Cosmos 1844 Rocket 3.0 16:51:44 10° SSW 16:57:18 69° WNW 17:02:56 10° NNE
Cosmos 1959 Rocket 4.5 16:52:06 10° N 16:58:17 73° E 17:04:32 10° SSE
Thor Agena Rocket 3.7 16:53:41 10° NNE 16:58:50 58° ESE 17:04:00 10° S
Cosmos 2218 Rocket 4.0 16:57:54 10° N 17:04:13 81° E 17:10:25 10° S
Cosmos 2251 Rocket 3.6 17:00:39 10° NNW 17:06:02 85° WSW 17:11:20 10° SSE
Cosmos 1812 2.7 17:02:40 10° S 17:06:30 67° E 17:10:20 10° NNE
CORIOLIS 4.1 17:04:25 10° SSE 17:09:47 70° ENE 17:15:09 10° N
SL-27 R/B 3.8 17:06:51 10° NNW 17:10:22 45° WSW 17:13:50 10° S
Meteor 1-18 Rocket 4.2 17:12:11 10° S 17:17:49 85° E 17:23:37 10° N
Okean 1 3.3 17:14:39 10° S 17:18:39 66° E 17:22:43 10° NNE
Cosmos 1844 4.2 17:15:06 10° SW 17:20:35 60° WNW 17:26:06 10° NNE
Intercosmos 25 3.9 17:17:59 10° NNE 17:20:42 24° ENE 17:23:25 10° SE
Abrixas 2.9 17:19:07 10° NW 17:21:58 42° NNE 17:23:15 25° ENE
Timation 2 Rocket 4.3 17:16:46 10° NNW 17:23:28 54° ENE 17:30:11 10° SE
Cosmos 2297 4.1 17:18:39 10° S 17:23:56 43° ESE 17:28:23 14° NE
Cosmos 1346 Rocket 2.7 17:25:48 10° S 17:29:37 58° E 17:33:15 11° NNE
Cosmos 1821 Rocket 4.4 17:25:14 10° N 17:30:49 36° ENE 17:36:21 10° SE
Cosmos 375 4.5 17:27:44 10° NW 17:32:13 81° SW 17:36:03 10° SSE
ISS -1.5 17:31:13 10° WNW 17:33:50 21° NNW 17:35:07 17° NNE
Cosmos 2278 Rocket 2.4 17:30:09 10° SSW 17:35:48 74° WNW 17:41:29 10° NNE
COSMO-SKYMED 1 2.7 17:33:21 12° NNE 17:37:12 50° E 17:41:24 10° S
SMAP 3.9 17:34:46 10° S 17:39:18 53° W 17:43:52 10° NNW
USA 234 3.5 17:34:55 15° NE 17:40:22 67° NW 17:46:49 10° WSW
SL-24 DEB 4.2 17:36:47 10° N 17:41:34 88° E 17:46:15 10° S
Meteor 2-14 Rocket 4.4 17:37:18 10° N 17:43:24 59° E 17:49:25 10° SSE
BREEZE M DEB (TANK) 3.4 17:45:31 10° NW 17:48:54 51° NNE 17:53:28 24° E
SL-8 R/B 3.9 17:45:38 10° WSW 17:50:22 63° NNW 17:52:28 32° NE
Genesis I 3.8 17:47:31 10° NW 17:51:24 57° WSW 17:55:12 10° SSE
Cosmos 2056 Rocket 4.3 17:47:15 10° SSE 17:51:53 30° E 17:52:16 30° E
NOSS 3-4 (A) 4.0 17:46:41 10° NNW 17:53:20 46° NE 17:57:35 23° ESE
NOSS 3-4 (C) 4.1 17:46:47 10° NNW 17:53:26 46° NE 17:57:36 24° ESE
Nadezhda 3 Rocket 3.9 17:50:11 10° S 17:56:23 84° E 18:02:42 10° N
Cosmos 1833 Rocket 2.6 17:52:20 10° NNW 17:57:59 69° ENE 18:03:35 10° SSE
Cosmos 1025 Rocket 3.3 17:54:54 10° SSE 17:59:04 45° E 17:59:28 44° ENE
NOSS 3-3 (A) 4.5 17:54:21 10° SW 18:00:29 59° NW 18:05:35 18° NNE
NOSS 3-3 (C) 4.5 17:54:26 10° SW 18:00:35 60° NW 18:05:40 18° NNE
Cosmos 2082 Rocket 2.1 17:55:01 10° NNW 18:00:42 84° ENE 18:06:24 10° SSE
Meteor 1-19 Rocket 4.2 17:55:03 10° S 18:00:47 69° E 18:06:38 10° NNE
Cosmos 921 Rocket 2.8 17:57:27 10° SSW 18:01:42 79° ESE 18:03:30 34° NNE
Meteor 2-21 Rocket 4.4 17:58:27 10° N 18:04:40 86° W 18:10:49 10° S
CZ-4 R/B 4.3 18:01:46 10° SW 18:04:48 19° W 18:07:50 10° NW
Cosmos 1624 Rocket 4.3 18:00:21 10° S 18:05:13 42° ESE 18:05:37 41° E
Cosmos 1743 2.6 18:01:57 10° N 18:05:51 90° WNW 18:09:42 10° S
GRACE-2 4.5 18:03:11 10° S 18:05:48 57° WSW 18:05:48 57° WSW
Meteor 2-16 Rocket 4.3 18:01:11 10° N 18:07:17 82° E 18:13:23 10° S
GEOS 3 Rocket 3.5 18:06:32 29° ESE 18:09:09 66° NE 18:14:14 10° NNW
COSMOS 2487 4.0 18:06:46 10° NW 18:10:08 38° WSW 18:13:27 10° S
Cosmos 1371 Rocket 4.0 18:04:57 10° S 18:10:13 59° ESE 18:11:45 42° NE
Meteor 1-15 Rocket 4.5 18:05:20 10° N 18:11:01 47° ENE 18:16:36 10° SSE
Cosmos 1484 Rocket 3.6 18:07:53 10° S 18:11:31 48° W 18:15:09 10° NNW
Meteor 1-28 Rocket 3.1 18:15:53 80° SE 18:15:53 80° SE 18:19:32 10° S
Tiangong 1 2.6 18:17:59 10° WSW 18:19:54 35° WSW 18:19:54 35° WSW
SKYMED 2 4.5 18:21:59 16° N 18:25:16 48° WNW 18:29:26 10° SW
ATLAS 3B CENTAUR R/B 4.4 18:08:25 10° WSW 18:25:53 38° SSW 18:31:14 19° SE
Meteor 1-23 Rocket 4.1 18:21:47 10° S 18:27:28 73° E 18:29:14 45° NNE
FALCON 9 R/B 3.6 18:11:00 10° WSW 18:32:28 54° S 18:35:31 35° SE
BREEZE-M R/B 4.0 18:24:49 10° WSW 18:33:47 57° NNW 18:34:44 49° NNE
Meteor 2-4 Rocket 3.6 18:31:37 10° SSW 18:37:00 81° W 18:38:55 41° N
Meteor 2-9 Rocket 4.0 18:32:19 10° N 18:37:47 85° W 18:43:07 10° S
Cosmos 1190 Rocket 4.5 18:38:03 10° NNW 18:41:50 47° N 18:41:50 47° N
Cosmos 1934 Rocket 4.1 18:41:07 10° NNW 18:47:19 73° W 18:53:34 10° S
BREEZE M DEB (TANK) 4.5 19:05:44 10° WSW 19:08:45 26° W 19:08:45 26° W
USA 234 4.4 19:22:16 30° N 19:22:40 31° NNW 19:28:12 10° WNW
CZ-3B DEB 4.1 19:24:25 10° WNW 19:30:31 42° N 19:31:38 41° NNE
